Weather in Moreno Valley

United States     33°55′45″N   117°15′38″W
temp.,
°C
wind,
m/s
gust,
m/s
humid.,
%
clouds,
%
prec.,
mm/h
press.,
hPa
HPBL,
m
16 september, thu
thu1623:00+19wnw11510 0.0 1012192
02:00+18w11600 0.0 1011183
05:00+17wnw11660 0.0 1011167
08:00+18wsw11680 0.0 1012300
11:00+24w21420 0.0 1011636
14:00+29wnw43240 0.0 1009966
17:00+28w54260 0.0 1009842
20:00+21wnw22430 0.0 1010244
17 september, fri
fri1723:00+19wnw11510 0.0 1011203
02:00+18nw11580 0.0 1012152
05:00+17w01620 0.0 1012129
08:00+20w11511 0.0 1014229
11:00+26wsw22290 0.0 1014709
14:00+30w33200 0.0 10131125
17:00+29w43230 0.0 10131001
20:00+22w22423 0.0 1015233
18 september, sat
sat1823:00+20w11504 0.0 1016181
02:00+18w01540 0.0 1016163
05:00+18wnw01590 0.0 1015127
08:00+21w10470 0.0 1017226
11:00+27wsw22260 0.0 1017747
14:00+30wnw44170 0.0 10141417
17:00+28w65231 0.0 1014971
20:00+21wnw23390 0.0 1015313
19 september, sun
sun1923:00+19nnw11490 0.0 1016235
02:00+17nnw11570 0.0 1015201
05:00+16n11600 0.0 1014148
08:00+20ssw00440 0.0 1015215
11:00+25w32270 0.0 1014760
14:00+29wnw33180 0.0 10121092
17:00+29wnw44190 0.0 10111005
20:00+22nw22365 0.0 1012244
20 september, mon
mon2023:00+19ene11420 0.0 1012186
02:00+18e11410 0.0 101168
05:00+17se01420 0.0 101144
08:00+22sse01310 0.0 1012119
11:00+29wsw21190 0.0 1011646
14:00+33w33140 0.0 1010979
17:00+33wnw54150 0.0 1009837
20:00+24wnw22370 0.0 1012189